sat.trackr.live / text

‹ back to catalog

STARLINK-6154

NORAD 57123 · 2023-090Y

PAYLOAD ACTIVE UNKNOWN

§ Identity

Operator
Country
US
Launch date
2023-06-23
Launch site
AFETR
Launch vehicle
Mass (kg)
RCS (m²)

Purposes: comms

External: N2YO · Heavens-Above · Gunter

§ Orbital elements

Epoch: 2026-05-25T04:00:03.998880Z

Period
94.27 min
Inclination
43.0008°
Eccentricity
0.0001727
Mean motion
15.27578793 rev/d
Perigee alt
481.9 km
Apogee alt
484.2 km
Semi-major
6,861.2 km
B*
9.1517e-4
RAAN
209.6554°
Arg perigee
269.7015°
Mean anomaly
261.6723°
Rev number
589

§ Raw data

STARLINK-61541 57123U 23090Y   26145.16671295  .00025006  00000+0  91517-3 0  99952 57123  43.0008 209.6554 0001727 269.7015 261.6723 15.27578793  5896

JSON: /api/v1/satellites/57123 · /tle

For live sub-satellite position, see the globe view (requires WebGL).

§ Visibility from observer

Set your observer location to see the next 7 days of passes ≥ 10°. The values pass through the URL so the page stays shareable.

No JS? Fill the form by hand. The geolocation button needs JavaScript.